[[{"header":{"parameterUnit":"m.s-1","parameterCategory":1,"la1":30.2991,"la2":30.254,"lo1":-89.0895,"lo2":-89.0444,"dy":0.0017,"dx":0.0017,"nx":28,"ny":28,"refTime":"2025-02-11T03:00:00:Z","depth":0,"parameterNumber":2,"parameterNumberName":"U-component_of_WINDS"},"data":[0,0,0,0,0,0,0,0,0,0,0,0,0,0,0,0,0,0,0,0,0,0,0,0,0,0,0,0,0,0,0,0,0,0,0,0,0,0,0,0,0,0,0,0,0,0,0,0,0,0,0,0,0,0,0,0,0,0,-2.8469,-2.8469,0,-2.8531,-2.8531,-2.8532,-2.8468,-2.8465,-2.8463,-2.846,-2.853,-2.8534,-2.8538,0,0,0,0,0,0,0,0,0,0,0,0,0,-2.8301,-2.8304,-2.8469,-2.8469,-2.847,-2.853,-2.8531,-2.8532,-2.8468,-2.8465,-2.8462,-2.8459,-2.8528,-2.8533,-2.8538,0,0,0,0,0,0,0,0,0,0,0,0,0,-2.8369,-2.8305,-2.8468,-2.8445,-2.8444,-2.853,-2.8531,-2.8532,-2.8469,-2.8465,-2.8461,-2.8458,-2.8527,-2.8533,-2.8539,-2.8653,0,0,-2.8558,-2.8561,0,0,0,0,0,0,0,0,-2.8366,-2.8376,-2.8448,-2.8447,-2.8445,-2.8487,-2.8497,-2.8573,-2.847,-2.8459,-2.846,-2.8456,-2.8519,-2.8526,-2.8546,-2.8656,-2.8659,-2.8559,-2.8562,-2.8565,-2.8567,0,0,0,0,0,0,0,-2.8361,-2.8373,-2.8493,-2.8449,-2.8448,-2.8434,-2.8439,-2.8512,-2.851,-2.846,-2.8455,-2.8463,-2.8518,-2.854,-2.8547,-2.866,-2.8559,-2.8564,-2.8568,-2.857,-2.8871,-2.8875,0,0,0,0,0,0,-2.8358,-2.8369,-2.8491,-2.8495,-2.8395,-2.844,-2.8446,-2.8478,-2.8509,-2.851,-2.8467,-2.846,-2.8531,-2.854,-2.8549,-2.8687,-2.8565,-2.8571,-2.8575,-2.8867,-2.8872,-2.8876,0,0,0,0,0,0,-2.8355,-2.8369,-2.8489,-2.8431,-2.8445,-2.8447,-2.8483,-2.8481,-2.8503,-2.8514,-2.8514,-2.8489,-2.8528,-2.854,-2.8628,-2.8688,-2.8574,-2.858,-2.8862,-2.8868,-2.8874,-2.8963,0,0,0,0,0,0,-2.835,-2.8369,-2.8411,-2.8432,-2.8448,-2.8565,-2.8487,-2.8485,-2.8513,-2.8506,-2.8535,-2.8536,-2.8526,-2.8619,-2.8634,-2.8695,-2.8585,-2.8856,-2.8865,-2.8872,-2.8954,-2.8971,-2.8985,0,0,0,0,0,-2.8344,-2.8434,-2.8413,-2.8428,-2.85,-2.8568,-2.8578,-2.8563,-2.8518,-2.8562,-2.8569,-2.8535,-2.8679,-2.8628,-2.8645,-2.8709,-2.8852,-2.8862,-2.8871,-2.8947,-2.8968,-2.8985,0,0,0,0,0,0,-2.8421,-2.8436,-2.8413,-2.8512,-2.8539,-2.8557,-2.8612,-2.8585,-2.8627,-2.8618,-2.86,-2.8607,-2.87,-2.8713,-2.8656,-2.8822,-2.8759,-2.8772,-2.8811,-2.883,-2.8846,-2.8842,-2.859,0,0,0,0,0,-2.8449,-2.8501,-2.8512,-2.8599,-2.8613,-2.861,-2.8639,-2.8625,-2.8654,-2.8665,-2.8679,-2.8709,-2.8761,-2.8796,-2.8844,-2.8955,-2.8962,-2.9007,-2.9023,-2.9036,-2.9048,-2.911,-2.9131,-2.8907,-2.8907,-2.8907,0,0,-2.8508,-2.8523,-2.8557,-2.8614,-2.8634,-2.869,-2.862,-2.8683,-2.8725,-2.8675,-2.8759,-2.877,-2.8803,-2.8903,-2.8948,-2.8917,-2.9111,-2.9048,-2.9058,-2.9063,-2.9122,-2.9143,-2.9162,-2.8914,-2.8913,-2.8912,0,0,-2.8646,-2.8661,-2.8735,-2.8756,-2.8786,-2.8783,-2.8801,-2.8824,-2.8829,-2.8912,-2.8876,-2.8927,-2.9017,-2.9042,-2.9067,-2.9215,-2.9187,-2.9231,-2.9314,-2.9374,-2.9392,-2.9408,-2.9463,-2.9483,-2.9243,-2.9243,-2.9243,0,-2.8717,-2.8798,-2.8778,-2.8843,-2.887,-2.8825,-2.8902,-2.8924,-2.8969,-2.899,-2.8953,-2.9066,-2.9085,-2.9192,-2.9228,-2.9248,-2.927,-2.9229,-2.9391,-2.9406,-2.9421,-2.9473,-2.9494,-2.9249,-2.9248,-2.9248,-2.9247,0,-2.8885,-2.8943,-2.8999,-2.9042,-2.9076,-2.9147,-2.9139,-2.9176,-2.9159,-2.9161,-2.9248,-2.9269,-2.9322,-2.9345,-2.933,-2.9451,-2.9431,-2.9393,-2.9329,-2.9448,-2.9497,-2.9517,-2.9256,-2.9255,-2.9253,-2.9252,0,0,-2.9074,-2.9104,-2.9126,-2.9146,-2.9175,-2.9221,-2.929,-2.934,-2.9373,-2.9406,-2.9466,-2.9542,-2.9508,-2.9536,-2.9523,-2.9576,-2.9695,-2.9532,-2.9533,-2.9564,-2.9833,-2.9863,-2.9886,-2.9675,-2.9679,-2.9682,-2.9831,0,-2.9214,-2.9333,-2.9317,-2.9432,-2.9487,-2.9445,-2.9506,-2.9533,-2.9537,-2.9585,-2.959,-2.9646,-2.9594,-2.9611,-2.9661,-2.967,-2.9749,-2.9659,-2.9734,-2.9737,-2.973,-2.9912,-2.9943,-3.0083,-2.985,-2.9853,-2.9855,0,-2.9393,-2.9431,-2.9552,-2.9574,-2.9596,-2.9651,-2.9697,-2.9742,-2.9772,-2.9772,-2.9803,-2.9781,-2.9854,-2.9787,-2.9888,-2.9827,-2.9857,-2.9866,-2.9871,-2.9879,-2.9805,-2.9928,-3.0126,-3.0149,-2.9885,-2.9883,-2.988,0,-2.9522,-2.9603,-2.9686,-2.9704,-2.9732,-2.9772,-2.9786,-2.9811,-2.9843,-2.9883,-2.9904,-2.9952,-2.998,-3.0019,-3.0012,-2.9963,-3.0117,-3.0048,-3.0121,-3.0121,-3.0157,-3.0155,-3.0366,-3.0172,-3.0171,-3.0171,-3.0171,0,-2.9682,-2.9758,-2.9744,-2.9796,-2.9881,-2.9862,-2.9947,-2.9956,-2.998,-3.0034,-3.0001,-3.0053,-3.0039,-3.0091,-3.0086,-3.0173,-3.0185,-3.0188,-3.0186,-3.0193,-3.0193,-3.0214,-3.0205,-3.0177,-3.0175,-3.0174,-3.0173,0,-2.9841,-2.9834,-2.9923,-2.9941,-2.9948,-3.001,-3.0027,-3.0077,-3.0078,-3.0147,-3.0162,-3.0165,-3.0225,-3.0221,-3.0289,-3.0285,-3.0393,-3.0378,-3.0382,-3.038,-3.0454,-3.0448,-3.0687,-3.0719,-3.0502,-3.0504,-3.0506,0,-2.9944,-3.0001,-3.0026,-3.0059,-3.0075,-3.0129,-3.0161,-3.0145,-3.018,-3.0219,-3.0265,-3.0321,-3.0365,-3.0464,-3.0473,-3.0526,-3.0514,-3.0594,-3.0522,-3.0527,-3.0518,-3.0516,-3.0523,-3.0609,-3.0612,-3.0614,-3.0615,0,-3.0129,-3.0123,-3.0169,-3.0215,-3.0253,-3.0289,-3.0321,-3.0351,-3.0339,-3.038,-3.044,-3.0474,-3.0543,-3.0601,-3.0651,-3.0667,-3.0641,-3.0638,-3.0658,-3.0666,-3.0667,-3.067,-3.0424,-3.0633,-3.0631,-3.063,-3.0629,-3.0628,-3.0265,-3.0315,-3.0341,-3.0393,-3.0416,-3.0447,-3.0495,-3.0501,-3.055,-3.0604,-3.0592,-3.0661,-3.0691,-3.0755,-3.0776,-3.0831,-3.0803,-3.0831,-3.0839,-3.0847,-3.0856,-3.0656,-3.084,-3.0839,-3.0839,-3.0839,-3.0838,0,-3.0451,-3.0465,-3.0514,-3.0559,-3.0602,-3.057,-3.0604,-3.0643,-3.0703,-3.0732,-3.0776,-3.0846,-3.0902,-3.0916,-3.097,-3.1011,-3.1001,-3.1026,-3.1025,-3.103,-3.0877,-3.0856,-3.1034,-3.1034,-3.1034,-3.1034,-3.1034,-3.1034,-3.0553,-3.0636,-3.0633,-3.0728,-3.0742,-3.0807,-3.083,-3.086,-3.0883,-3.0962,-3.1008,-3.1015,-3.104,-3.1095,-3.1146,-3.1149,-3.1172,-3.1203,-3.1201,-3.1059,-3.104,-3.1021,-3.1001,-3.1207,-3.1208,-3.1349,-3.135,-3.1351]},{"header":{"parameterUnit":"m.s-1","parameterCategory":1,"la1":30.2991,"la2":30.254,"lo1":-89.0895,"lo2":-89.0444,"dy":0.0017,"dx":0.0017,"nx":28,"ny":28,"refTime":"2025-02-11T03:00:00:Z","depth":0,"parameterNumber":3,"parameterNumberName":"V-component_of_WINDS"},"data":[0,0,0,0,0,0,0,0,0,0,0,0,0,0,0,0,0,0,0,0,0,0,0,0,0,0,0,0,0,0,0,0,0,0,0,0,0,0,0,0,0,0,0,0,0,0,0,0,0,0,0,0,0,0,0,0,0,0,-1.9631,-1.963,0,-1.9598,-1.9597,-1.9597,-1.9594,-1.9594,-1.9595,-1.9595,-1.9558,-1.9556,-1.9555,0,0,0,0,0,0,0,0,0,0,0,0,0,-1.9686,-1.9685,-1.9631,-1.963,-1.963,-1.9598,-1.9597,-1.9597,-1.9594,-1.9594,-1.9595,-1.9595,-1.9558,-1.9556,-1.9555,0,0,0,0,0,0,0,0,0,0,0,0,0,-1.9659,-1.9685,-1.9631,-1.9625,-1.9624,-1.9598,-1.9597,-1.9597,-1.9594,-1.9594,-1.9595,-1.9595,-1.9559,-1.9557,-1.9555,-1.9531,0,0,-1.9548,-1.9548,0,0,0,0,0,0,0,0,-1.966,-1.9657,-1.9626,-1.9625,-1.9624,-1.9601,-1.9603,-1.9575,-1.9594,-1.9605,-1.9595,-1.9596,-1.9571,-1.9568,-1.9561,-1.953,-1.9528,-1.9548,-1.9547,-1.9546,-1.9546,0,0,0,0,0,0,0,-1.9662,-1.9658,-1.9617,-1.9625,-1.9624,-1.9622,-1.9619,-1.9598,-1.9585,-1.9604,-1.9604,-1.96,-1.9571,-1.9563,-1.956,-1.9527,-1.9548,-1.9547,-1.9545,-1.9545,-1.9472,-1.9471,0,0,0,0,0,0,-1.9666,-1.966,-1.9618,-1.9616,-1.9644,-1.962,-1.9617,-1.9607,-1.9586,-1.9583,-1.96,-1.96,-1.9566,-1.9562,-1.9558,-1.9527,-1.9546,-1.9544,-1.9543,-1.9473,-1.9472,-1.9471,0,0,0,0,0,0,-1.9667,-1.9662,-1.962,-1.9638,-1.9632,-1.9619,-1.9608,-1.9606,-1.9598,-1.9582,-1.958,-1.9594,-1.9566,-1.9561,-1.9538,-1.9526,-1.9543,-1.9542,-1.9474,-1.9473,-1.9472,-1.9467,0,0,0,0,0,0,-1.9669,-1.9663,-1.9655,-1.9638,-1.9631,-1.9601,-1.9608,-1.9605,-1.9595,-1.9596,-1.9576,-1.9573,-1.9566,-1.9541,-1.9536,-1.9524,-1.954,-1.9475,-1.9473,-1.9472,-1.9468,-1.9466,-1.9464,0,0,0,0,0,-1.9671,-1.9655,-1.9655,-1.965,-1.9622,-1.9601,-1.9597,-1.959,-1.9595,-1.9586,-1.9575,-1.9574,-1.9529,-1.9538,-1.9533,-1.952,-1.9475,-1.9474,-1.9472,-1.9469,-1.9466,-1.9464,0,0,0,0,0,0,-1.967,-1.9653,-1.9652,-1.9631,-1.9617,-1.96,-1.9589,-1.9587,-1.9571,-1.9572,-1.9563,-1.9558,-1.9534,-1.9525,-1.9536,-1.9495,-1.9502,-1.9499,-1.9502,-1.9499,-1.9497,-1.9499,-1.9538,0,0,0,0,0,-1.9668,-1.9654,-1.9638,-1.9621,-1.9614,-1.9603,-1.9593,-1.9589,-1.9574,-1.9568,-1.9555,-1.954,-1.9522,-1.951,-1.9493,-1.9467,-1.9461,-1.9455,-1.9453,-1.9452,-1.9449,-1.9431,-1.9427,-1.9466,-1.9466,-1.9466,0,0,-1.9662,-1.9651,-1.9642,-1.962,-1.9609,-1.9593,-1.9598,-1.9581,-1.9567,-1.9565,-1.9541,-1.9532,-1.9514,-1.9488,-1.9476,-1.9479,-1.9437,-1.9449,-1.9448,-1.9446,-1.9429,-1.9425,-1.9422,-1.9465,-1.9465,-1.9465,0,0,-1.9643,-1.9634,-1.9618,-1.9606,-1.959,-1.9582,-1.9578,-1.9561,-1.9554,-1.9531,-1.9528,-1.9511,-1.9481,-1.9468,-1.9457,-1.9431,-1.9428,-1.9425,-1.9414,-1.9397,-1.9394,-1.9391,-1.9379,-1.9375,-1.9423,-1.9423,-1.9423,0,-1.9638,-1.9615,-1.9609,-1.9591,-1.958,-1.9578,-1.9559,-1.9548,-1.9527,-1.9518,-1.9523,-1.9483,-1.9471,-1.9441,-1.9434,-1.9426,-1.9419,-1.9427,-1.9395,-1.9392,-1.939,-1.9378,-1.9374,-1.9422,-1.9422,-1.9422,-1.9422,0,-1.9608,-1.9591,-1.9579,-1.9559,-1.9547,-1.9529,-1.9518,-1.9506,-1.9503,-1.9494,-1.9468,-1.9453,-1.9432,-1.9425,-1.9421,-1.9393,-1.9395,-1.9398,-1.9405,-1.9386,-1.9374,-1.937,-1.9422,-1.9422,-1.9422,-1.9422,0,0,-1.9588,-1.9564,-1.9559,-1.9549,-1.953,-1.9516,-1.9496,-1.9476,-1.9465,-1.945,-1.9431,-1.9405,-1.9406,-1.9394,-1.9388,-1.9374,-1.9351,-1.9378,-1.9377,-1.9371,-1.9315,-1.9312,-1.9307,-1.9349,-1.9349,-1.9348,-1.9316,0,-1.9566,-1.9533,-1.9526,-1.9497,-1.9479,-1.9476,-1.9459,-1.9444,-1.9435,-1.9417,-1.9406,-1.9387,-1.9392,-1.9384,-1.9369,-1.9357,-1.9339,-1.9359,-1.933,-1.9329,-1.9333,-1.9302,-1.9299,-1.927,-1.9312,-1.9311,-1.9311,0,-1.9535,-1.9519,-1.9488,-1.9469,-1.9462,-1.9447,-1.9426,-1.941,-1.9392,-1.9386,-1.9372,-1.9367,-1.9344,-1.9353,-1.932,-1.9334,-1.9321,-1.9313,-1.9312,-1.9307,-1.9317,-1.9294,-1.9261,-1.9255,-1.9304,-1.9305,-1.9305,0,-1.9521,-1.9492,-1.9469,-1.946,-1.9438,-1.9427,-1.9417,-1.94,-1.9387,-1.9368,-1.9359,-1.9338,-1.9326,-1.9309,-1.9297,-1.9306,-1.9264,-1.9273,-1.9256,-1.9256,-1.9246,-1.9247,-1.9208,-1.9242,-1.9242,-1.9242,-1.9242,0,-1.9496,-1.9476,-1.9462,-1.9448,-1.9425,-1.9416,-1.9393,-1.9383,-1.9367,-1.9349,-1.9345,-1.9327,-1.9314,-1.9294,-1.9285,-1.9257,-1.9253,-1.9245,-1.9242,-1.9244,-1.9245,-1.9235,-1.9235,-1.9241,-1.9241,-1.9241,-1.9242,0,-1.9476,-1.9466,-1.944,-1.9421,-1.9416,-1.9399,-1.9382,-1.9366,-1.9357,-1.9333,-1.9327,-1.9311,-1.9287,-1.9275,-1.9245,-1.9238,-1.9206,-1.9206,-1.9212,-1.9211,-1.9194,-1.9194,-1.9145,-1.9137,-1.9179,-1.9178,-1.9178,0,-1.946,-1.9445,-1.9423,-1.9411,-1.9401,-1.9382,-1.9369,-1.9359,-1.9345,-1.9322,-1.9308,-1.9285,-1.9265,-1.9226,-1.921,-1.9187,-1.9184,-1.9168,-1.918,-1.9182,-1.9181,-1.9181,-1.9178,-1.9166,-1.9165,-1.9165,-1.9165,0,-1.9431,-1.9426,-1.9408,-1.9388,-1.9372,-1.9355,-1.9339,-1.9328,-1.9315,-1.9299,-1.9275,-1.926,-1.9229,-1.9204,-1.9178,-1.9165,-1.9161,-1.9161,-1.9156,-1.9156,-1.9159,-1.9155,-1.9204,-1.9162,-1.9162,-1.9163,-1.9163,-1.9163,-1.9411,-1.9396,-1.9378,-1.9358,-1.9344,-1.9328,-1.9311,-1.9299,-1.9279,-1.9254,-1.9249,-1.9222,-1.9202,-1.9167,-1.9153,-1.9131,-1.9134,-1.9126,-1.9124,-1.9122,-1.9119,-1.9165,-1.9127,-1.9127,-1.9127,-1.9127,-1.9127,0,-1.938,-1.9368,-1.9349,-1.9325,-1.9308,-1.9308,-1.9288,-1.9273,-1.925,-1.9232,-1.9212,-1.9183,-1.9158,-1.914,-1.9114,-1.9099,-1.9096,-1.9092,-1.9092,-1.9088,-1.912,-1.9126,-1.9094,-1.9094,-1.9094,-1.9094,-1.9094,-1.9094,-1.9362,-1.9336,-1.9329,-1.9295,-1.9283,-1.9257,-1.9246,-1.923,-1.9215,-1.9182,-1.9162,-1.9151,-1.9131,-1.9103,-1.9079,-1.9074,-1.9064,-1.9059,-1.9054,-1.9083,-1.9086,-1.909,-1.9095,-1.9058,-1.9058,-1.9023,-1.9023,-1.9023]}]]